User: anonymous   Login
Location: Lynch Observatory
(39.9540°N, 75.1861°W)
Time: 21:00:09
(UTC-04:00)
Language:

UWE-3 - Orbit

View from above orbital plane
View from above orbital plane
View from above satellite
View from above satellite

Ground track
Ground track

The orbit data is extracted from the following two-line orbital elements,

1 39446U 13066AG  24114.29722627  .00011250  00000-0  12677-2 0  9995
2 39446  97.7775  65.2524 0062625  41.3510 319.2422 14.85336856560552
Epoch (UTC): 23 April 2024 07:08:00
Eccentricity: 0.0062625
inclination: 97.7775°
perigee height: 569 km
apogee height: 656 km
right ascension of ascending node: 65.2524°
argument of perigee: 41.3510°
revolutions per day: 14.85336856
mean anomaly at epoch: 319.2422°
orbit number at epoch: 56055

The dashed part of the orbit path shows where the satellite is in the earth's shadow,  

DLR